Regional Weather Roundup
Issued by NWS Newport/Morehead, NC

Current Version | Previous Version | Text Only | Print | Product List | Glossary On
Versions: 1 2 3 4 5 6 7 8 9 10 11 12 13 14 15 16 17 18 19 20 21 22 23 24 25 26 27 28 29 30 31 32 33 34 35 36 37 38 39 40 41 42 43 44 45 46 47 48 49 50
000
ASUS42 KMHX 281325
RWRMHX
WEATHER ROUNDUP FOR EASTERN NORTH CAROLINA
NATIONAL WEATHER SERVICE NEWPORT/MOREHEAD CITY NC
900 AM EDT TUE MAR 28 2017

NOTE: "FAIR" INDICATES FEW OR NO CLOUDS BELOW 12,000 FEET
WITH NO SIGNIFICANT WEATHER AND/OR OBSTRUCTIONS TO VISIBILITY

NCZ015>017-031-032-045>047-102-103-281400-
NORTH COAST

CITY           SKY/WX    TMP DP  RH WIND       PRES   REMARKS
EDENTON        CLOUDY    65  59  82 S9        29.98R
ELIZABETH CITY CLOUDY    65  58  78 S9        29.97S
KITTY HAWK     NOT AVBL
MANTEO         CLOUDY    62  59  88 SW9       29.99S

$$

NCZ045>047-081-094-103-104-281400-
CENTRAL COAST

CITY           SKY/WX    TMP DP  RH WIND       PRES   REMARKS
FRISCO         CLOUDY    70  60  70 SW9       30.00S HAZE

$$

NCZ095-097-098-100-101-281400-
SOUTHERN COAST

CITY           SKY/WX    TMP DP  RH WIND       PRES   REMARKS
BEAUFORT       MOSUNNY   67  62  84 SW12      30.00S
CEDAR ISLAND   NOT AVBL
JACKSONVILLE   MOSUNNY   68  62  81 SW9       29.98F
PINEY ISLAND   CLOUDY   N/A N/A N/A SW7       30.00S
WILMINGTON     MOSUNNY   70  60  70 SW13      29.99F


$$

NCZ011>013-027>030-043-044-078>080-089-090>093-098-281400-
COASTAL PLAIN

CITY           SKY/WX    TMP DP  RH WIND       PRES   REMARKS
AHOSKIE          N/A     63  58  84 CALM      29.94F
CLINTON        LGT RAIN  63  61  93 SW3       30.00R
ELIZABETHTOWN  LGT RAIN  63  60  90 W6        29.99S
GOLDSBORO      LGT RAIN  66  63  88 SW15G22   29.96S
GREENVILLE     CLOUDY    68  61  77 SW9       29.98F
HAVELOCK       NOT AVBL
KENANSVILLE    CLOUDY    66  59  77 W8        29.98S
KINSTON        CLOUDY    66  59  77 SW9       29.98F
NEW BERN       CLOUDY    67  61  81 SW8       30.00S
RICHLANDS      CLOUDY    68  61  78 SW12      29.99S
ROCKY MOUNT    CLOUDY    63  59  87 S7        29.95F
WASHINGTON     CLOUDY    64  59  82 SW9       29.98S
WHITEVILLE     CLOUDY    66  59  78 W3        30.00R

$$

AMZ130-135-150-152-154-156-158-170-250-252-270-ANZ085-086-088-633-658-670-281400-
MARINE OBSERVATIONS

STATION/POSITION TIME  TEMP    WIND        PRES    WAVE   SWELL
                       AIR SEA DIR/SP/G            HT/PER HT/PER
                 (UTC) (F)     (DEG/KT/KT) (MB)    (FT/S) (FT/S)
CHESAPEAKE LIGHT NOT AVBL
64 E VA BEACH    1250   56 50  200/ 14/ 14 1014.6    4/ 9   3/ 9
DUCK             1300   63 48  200/ 12/ 15 1014.5
2 E DUCK         1300      50                N/A     3/ 9   2/11
OREGON INLET     1300   61 58  200/  9/ 10 1015.5
13E OREGON INLT  1248      52                N/A     4/10   5/10
HATTERAS CG      1300   68 61  230/  8/ 12 1015.8
DIAMOND BUOY     1250   72 75  230/ 16/ 19 1015.9    5/10   3/10
CAPE LOOKOUT     1300   69     230/  7/ 11 1015.9
BEAUFORT LAB     1300   66 60  210/  6/ 10 1015.1
30 SE NEW RVR IN 1308   67     250/ 10/ 12 1016.2
30 SE NEW RVR IN 1243      64                N/A     5/11   3/11
27 SE WRIGHTSVLE 1308   68 66  250/ 12/ 17 1015.4
5 SE WRIGHTSVLE  1308   62 60  190/ 10/ 12 1015.4
225 S CAPE HAT   1250   69 72  300/  2/  4 1018.4    6/10   7/10
41 SE CHARLESTON 1250   71 70  240/ 16/ 17 1016.2    6/10   5/10

$$



USA.gov is the U.S. government's official web portal to all federal, state and local government web resources and services.